Regional Weather Roundup
Issued by NWS

Home | Current Version | Previous Version | Graphics & Text | Print | Product List | Glossary On
Versions: 1 2 3 4 5 6 7 8 9 10 11 12 13 14 15 16 17 18 19 20 21 22 23 24 25 26 27 28 29 30 31 32 33 34 35 36 37 38 39 40 41 42 43 44 45 46 47 48 49 50
000
ASUS43 KLMK 160802
RWRKY
KENTUCKY REGIONAL WEATHER ROUNDUP
NATIONAL WEATHER SERVICE LOUISVILLE KY
300 AM EST MON JAN 16 2017

NOTE "FAIR" INDICATES FEW OR NO CLOUDS BELOW 12,000 FEET
WITH NO SIGNIFICANT WEATHER AND/OR OBSTRUCTIONS TO VISIBILITY.

KYZ001>023-026-027-061>063-070>075-160900-
WESTERN AND SOUTH CENTRAL KENTUCKY

CITY           SKY/WX    TMP DP  RH WIND       PRES   REMARKS
PADUCAH        FOG       44  42  93 SE7       30.20S VSB 1/2
HENDERSON      CLOUDY    41  37  87 E6        30.23S
OWENSBORO      CLOUDY    42  41  96 E3        30.25R
HOPKINSVILLE   CLOUDY    45  45 100 E6        30.22S FOG
BOWLING GREEN  FOG       46  45  96 E3        30.24S VSB 1/2
GLASGOW        NOT AVBL
$$

KYZ024-025-028>034-038-045-046-053-160900-
NORTH CENTRAL KENTUCKY

CITY           SKY/WX    TMP DP  RH WIND       PRES   REMARKS
LOUISVILLE/SDF CLOUDY    42  39  89 NE3       30.27R
LOUISVILLE/LOU CLOUDY    42  39  89 E3        30.27S
FORT KNOX      FOG       40  40 100 E5        30.24R VSB 1/2
$$

KYZ035>037-039>044-047>052-055>060-089>105-160900-
NORTHEAST KENTUCKY

CITY           SKY/WX    TMP DP  RH WIND       PRES   REMARKS
LEXINGTON      CLOUDY    41  39  93 SE5       30.27R
COVINGTON      CLOUDY    38  37  97 E8        30.28S FOG     WCI  32
FRANKFORT      CLOUDY    41  38  89 E5        30.26S
$$

KYZ054-064>069-076>088-106>120-160900-
SOUTHEAST KENTUCKY

CITY           SKY/WX    TMP DP  RH WIND       PRES   REMARKS
JACKSON        FOG       41  40  96 CALM      30.27R VSB 1/4
LONDON         FOG       45  43  93 CALM      30.26S VSB 1/2
SOMERSET       NOT AVBL
MIDDLESBORO    CLOUDY    50  50 100 CALM      30.27F
MONTICELLO     NOT AVBL
$$





USA.gov is the U.S. government's official web portal to all federal, state and local government web resources and services.